This is the latest recevied weather packets stored in our database for station/object KE4AMH. If no packets are shown the sender has not sent any weather packets the latest 10 day(s).
| Time | Temp. | Humidity | Pressure | Rain* | Wind** | Luminosity | Snow |
|---|---|---|---|---|---|---|---|
| 1778120109 | 18.33° C | 99% | 1013.1 hPa | 7.87 mm | - | 0 W/m² | - |
| 1778119805 | 18.33° C | 99% | 1013.6 hPa | 7.11 mm | - | 0 W/m² | - |
| 1778119503 | 18.33° C | 99% | 1013.8 hPa | 3.56 mm | - | 0 W/m² | - |
| 1778119199 | 18.33° C | 99% | 1013.7 hPa | 3.56 mm | - | 0 W/m² | - |
| 1778118898 | 18.33° C | 99% | 1013.8 hPa | 3.05 mm | - | 0 W/m² | - |
| 1778118595 | 18.33° C | 99% | 1013.5 hPa | 1.78 mm | - | 0 W/m² | - |
| 1778118291 | 18.33° C | 99% | 1013.3 hPa | 3.05 mm | - | 0 W/m² | - |
| 1778117987 | 18.33° C | 99% | 1013.1 hPa | 4.32 mm | - | 0 W/m² | - |
| 1778117684 | 18.33° C | 99% | 1013.9 hPa | 4.32 mm | - | 0 W/m² | - |
| 1778117381 | 18.33° C | 99% | 1014 hPa | 3.56 mm | - | 0 W/m² | - |
| 1778117078 | 18.33° C | 99% | 1013.5 hPa | 2.29 mm | - | 0 W/m² | - |
| 1778116774 | 18.33° C | 99% | 1014 hPa | 2.29 mm | - | 0 W/m² | - |
| 1778116472 | 18.33° C | 99% | 1013.8 hPa | 1.78 mm | - | 0 W/m² | - |
| 1778116166 | 18.33° C | 99% | 1013.7 hPa | 0 mm | - | 0 W/m² | - |
| 1778115861 | 18.33° C | 99% | 1013.9 hPa | 3.05 mm | - | 0 W/m² | - |
| 1778115559 | 18.33° C | 99% | 1013.9 hPa | 5.33 mm | - | 0 W/m² | - |
| 1778115256 | 18.33° C | 99% | 1013.8 hPa | 4.83 mm | - | 0 W/m² | - |
| 1778114952 | 18.89° C | 99% | 1013.9 hPa | 11.43 mm | - | 0 W/m² | - |
| 1778114649 | 18.89° C | 98% | 1014.1 hPa | 21.59 mm | - | 0 W/m² | - |
| 1778114347 | 18.89° C | 98% | 1014.3 hPa | 19.3 mm | - | 0 W/m² | - |
| 1778114041 | 19.44° C | 97% | 1014.6 hPa | 8.89 mm | - | 0 W/m² | - |
| 1778113737 | 19.44° C | 96% | 1013.7 hPa | 7.11 mm | - | 0 W/m² | - |
| 1778113433 | 20° C | 94% | 1013 hPa | 11.43 mm | - | 0 W/m² | - |
| 1778113131 | 20.56° C | 89% | 1011.8 hPa | 7.11 mm | - | 0 W/m² | - |
| 1778112827 | 21.67° C | 81% | 1011.1 hPa | 0 mm | - | 0 W/m² | - |
* Rain latest hour (hover to see other rain measurements)
** Current wind speed in m/s (hover to see current wind gust speed)